Find Starlink 1280

NORAD ID: 45388 Int'l Des: 2020-019 Owner: SPXS Country: US Constellation: starlink decayed
LEOCIRCULAR

Re-entered — Aug 19, 2026

Loading 3D Globe...

About Starlink 1280

Starlink 1280 (NORAD 45388) is a starlink constellation satellite (v1.0) launched Mar 18, 2020 by SPXS of US. It re-entered the atmosphere on Aug 19, 2026. with a mass of 260.00 kg.

Altitude History

Loading altitude history...

Two-Line Element Set

1 45388U 20019AE 26231.83342976 .11000890 12611-4 21612-3 0 9995
2 45388 53.0189 20.3523 0007668 298.9971 61.0309 16.46685012356173
Epoch: Aug 19, 2026 • Age: 792 hours

Current Status

Position data unavailable
Launch Date Mar 18, 2020
Age 6.5 years
Decay Date Aug 19, 2026
Type internet

Technical Details

Classification Payload
Mass 260.00 kg
Dry Mass 248.00 kg
Length 0.20 m
Span 9.00 m
Shape ? Box + pan
Manufacturer SPXS
Bus Type Starlink
Phase Status Unknown Transfer Status
Owner/State SPXS/US

Most Searched